World > North America > United States > Iowa > Liscomb  

Liscomb, IA Hourly Weather Updates

Feedback E-mail the Weather

Quick Clicks

Liscomb, IA Weather Maps

°F °C°F °C
Liscomb Weather Map
UTC Time: 7/20/2024, 16:58
Your Time:

Liscomb, IA Regional Weather

Expires:202407201700;;993924
ASUS43 KDMX 201606
RWRIA 

WEATHER ROUNDUP FOR IOWA
NATIONAL WEATHER SERVICE DES MOINES IA
1100 AM CDT SAT JUL 20 2024

NOTE: "FAIR" INDICATES FEW OR NO CLOUDS BELOW 12,000 FEET WITH NO
SIGNIFICANT WEATHER AND/OR OBSTRUCTIONS TO VISIBILITY.

* - THESE STATIONS ARE NOT NWS STATIONS...THUS NOT UNDER NWS
QUALITY CONTROL.  THEY ALSO DO NOT REPORT WEATHER SUCH 
AS PRECIPITATION OR FOG.  


IAZ047>049-059>061-072>074-084-201700-
   CENTRAL IOWA
  
CITY           SKY/WX    TMP DP  RH WIND       PRES   REMARKS
AMES           CLOUDY    67  63  87 SW6       30.16R TC  19           
ANKENY *       CLOUDY    66  64  94 CALM      30.17R FOG     TC  19   
BOONE *        CLOUDY   N/A N/A N/A S6        30.15R                  
CHARITON *     CLOUDY    68  66  94 N5        30.15R TC  20           
DES MOINES     CLOUDY    68  64  87 W3        30.17R TC  20           
GRINNELL*      CLOUDY    69  65  86 CALM      30.18R TC  21           
KNOXVILLE *    CLOUDY    68  63  83 N6        30.16S TC  20           
MARSHALLTOWN   CLOUDY    68  64  87 NW3       30.16R TC  20           
NEWTON *       MOSUNNY   66  66 100 N3        30.16R FOG     TC  19   
PELLA *        CLOUDY    68  65  89 N5        30.16S TC  20           
$$
 

SKY/WX - Weather  TMP - Temperature  DP - Dew Point  RH - Humidity
WIND - Wind Direction/Speed PRES - Barometric Pressure VSB - Visibility
WCI - Wind Chill Index E13G22 Wind - East Wind 13 mph/Gusts of 22 mph

Trending Headlines

Trending Entertainment Headlines

Liscomb Radar Loop

Use the map search tool if you want to place a location marker on the radar map...

Liscomb Quick Facts

National Two Day Weather Forecast


E-mail the Liscomb Weather Forecast

Voice your opinion or tell us about page issues...